Change the Weather History Date:

Tuesday, April 9, 2013

  Actual Average Record
Temperature  
Mean Temperature 48 °F -  
Max Temperature 51 °F 51 °F 59 °F (2004)
Min Temperature 45 °F 39 °F 35 °F (1999)
Degree Days  
Heating Degree Days 17    
Moisture  
Dew Point 43 °F    
Average Humidity 82    
Maximum Humidity 93    
Minimum Humidity 65    
Precipitation  
Precipitation 0.08 in - - ()
Sea Level Pressure  
Sea Level Pressure 30.29 in    
Wind  
Wind Speed 8 mph ()    
Max Wind Speed 13 mph    
Max Gust Speed -    
Visibility 12.0 miles    
Events Rain    
Averages and records for this station are not official NWS values.
T = Trace of Precipitation, MM = Missing Value Source: Averaged Metar Reports

Daily Weather History Graph

Daily Weather History Graph

Search for Another Location

Airport or City:

Trip Planner

Search our weather history database for the weather conditions in past years. The results will help you decide how hot, cold, wet, or windy it might be!

Date:

Astronomy

Apr. 09, 2013 Rise Set
Actual Time 6:32 AM PDT 7:56 PM PDT
Civil Twilight 5:59 AM PDT 8:29 PM PDT
Nautical Twilight 5:19 AM PDT 9:09 PM PDT
Astronomical Twilight 4:36 AM PDT 9:53 PM PDT
Moon 6:00 AM PDT (4/9) 7:39 PM PDT (4/9)
Length of Visible Light 14h 29m
Length of Day
13h 23m
Waning Crescent, 0% of the Moon is Illuminated
Apr 9
Waning Crescent
Apr 10
New
Apr 18
First Quarter
Apr 25
Full
May 2
Last Quarter

Hourly Weather History & Observations

Time (PDT) Temp. Windchill Dew Point Humidity Pressure Visibility Wind Dir Wind Speed Gust Speed Precip Events Conditions
12:00 AM 48.2 °F - 41.0 °F 76% 30.26 in 15.0 mi East 9.2 mph - N/A   Mostly Cloudy
1:00 AM 46.4 °F 42.4 °F 41.0 °F 81% 30.27 in 15.0 mi ESE 8.1 mph - N/A   Mostly Cloudy
2:00 AM 48.2 °F - 42.8 °F 82% 30.28 in 15.0 mi East 9.2 mph - N/A   Overcast
3:00 AM 48.2 °F - 42.8 °F 82% 30.29 in 15.0 mi ESE 10.4 mph - N/A   Overcast
4:00 AM 48.2 °F - 42.8 °F 82% 30.30 in 15.0 mi East 9.2 mph - N/A   Overcast
5:00 AM 47 °F - 42 °F 79% 30.30 in 15 mi East 9.2 mph - -   Overcast
5:00 AM 46.4 °F 41.5 °F 42.8 °F 87% 30.30 in 15.0 mi East 10.4 mph - N/A   Overcast
6:00 AM 46.4 °F 41.1 °F 42.8 °F 87% 30.30 in 15.0 mi East 11.5 mph - N/A   Overcast
7:00 AM 48.2 °F - 42.8 °F 82% 30.31 in 15.0 mi ESE 10.4 mph - N/A   Overcast
7:21 AM 48.2 °F - - N/A% - 15.0 mi ESE 10.4 mph - N/A Rain Light Rain Showers
8:00 AM 48.2 °F - 42.8 °F 82% 30.32 in 12.0 mi SE 10.4 mph - N/A Rain Light Rain Showers
8:19 AM 48.2 °F - - N/A% - 12.0 mi ESE 12.7 mph - N/A   Overcast
9:00 AM 48.2 °F - 42.8 °F 82% 30.32 in 12.0 mi SSE 8.1 mph - N/A   Overcast
10:00 AM 50.0 °F - 42.8 °F 76% 30.33 in 12.0 mi SSE 8.1 mph - N/A   Overcast
11:00 AM 51 °F - 43 °F 65% 30.34 in 15 mi SE 9.2 mph - -   Partly Cloudy
11:00 AM 51.8 °F - 42.8 °F 71% 30.34 in 15.0 mi SSE 8.1 mph - N/A   Overcast
12:00 PM 50.0 °F - 42.8 °F 76% 30.34 in 15.0 mi SE 6.9 mph - N/A   Overcast
1:00 PM 50.0 °F - 42.8 °F 76% 30.33 in 15.0 mi SSE 8.1 mph - N/A   Overcast
1:17 PM 50.0 °F - - N/A% - 15.0 mi South 3.5 mph - N/A Rain Light Rain Showers
2:00 PM 48.2 °F - 44.6 °F 87% 30.34 in 10.0 mi SSW 8.1 mph - N/A Rain Light Rain Showers
3:00 PM 48.2 °F - 44.6 °F 87% 30.32 in 10.0 mi ESE 9.2 mph - N/A Rain Light Rain Showers
4:00 PM 48.2 °F - 42.8 °F 82% 30.32 in 6.0 mi ENE 8.1 mph - N/A Rain Light Rain Showers
5:00 PM 48 °F - 44 °F 80% 30.30 in 6 mi ENE 9.2 mph - - Rain Light Rain Showers
5:00 PM 48.2 °F - 44.6 °F 87% 30.30 in 6.0 mi ENE 10.4 mph - N/A Rain Light Rain Showers
5:26 PM 48.2 °F - - N/A% - 10.0 mi ENE 9.2 mph - N/A   Overcast
6:00 PM 48.2 °F - 44.6 °F 87% 30.29 in 12.0 mi ENE 9.2 mph - N/A   Overcast
7:00 PM 48.2 °F - 42.8 °F 82% 30.26 in 12.0 mi East 9.2 mph - N/A   Overcast
7:40 PM 46.4 °F 40.7 °F - N/A% - 8.0 mi ENE 12.7 mph - N/A Rain Light Rain
8:00 PM 46.4 °F 41.1 °F 42.8 °F 87% 30.24 in 8.0 mi ENE 11.5 mph - N/A Rain Light Rain
9:00 PM 46.4 °F 42.9 °F 44.6 °F 93% 30.23 in 10.0 mi ENE 6.9 mph - N/A Rain Light Rain
10:00 PM 46.4 °F 42.4 °F 44.6 °F 93% 30.22 in 10.0 mi East 8.1 mph - N/A Rain Light Rain
10:55 PM 46.4 °F 41.5 °F - N/A% - 10.0 mi ENE 10.4 mph - N/A   Overcast
11:00 PM 47 °F - 44 °F 86% 30.18 in 10 mi ENE 11.5 mph - - Rain Light Rain
11:00 PM 46.4 °F 41.1 °F 44.6 °F 93% 30.18 in 10.0 mi ENE 11.5 mph - N/A   Overcast
11:14 PM 46.4 °F 41.5 °F - N/A% - 8.0 mi ENE 10.4 mph - N/A Rain Light Rain